DIERAUER Weather Reports


time (UTC)temp
F
wind
direction
speed
knots
gust
knots
rain 1hr
in
rain 24hr
in
rain mn
in
humidity
%
barometer
mb
20260507070503 43 243 0.0 1.7 0.00 0.10 0.00 89 1013.8
20260507070011 43 243 0.0 1.7 0.00 0.10 0.00 88 1013.9
20260507065503 43 243 0.0 1.7 0.00 0.10 0.00 88 1013.9
20260507065003 43 243 0.0 1.7 0.00 0.10 0.00 87 1013.9
20260507064517 43 243 0.0 1.7 0.00 0.10 0.00 87 1013.8
20260507064003 43 243 0.0 1.7 0.00 0.10 0.00 87 1013.9
20260507063504 43 243 0.0 1.7 0.00 0.10 0.00 87 1013.8
20260507063011 43 243 0.9 1.7 0.00 0.11 0.00 86 1013.9
20260507062506 44 248 0.9 1.7 0.00 0.12 0.00 87 1014.0
20260507062006 43 248 0.9 1.7 0.00 0.13 0.00 87 1013.9
20260507061508 44 248 0.9 1.7 0.00 0.14 0.00 87 1013.9
20260507061003 44 286 0.9 1.7 0.00 0.15 0.00 85 1013.9
20260507060511 44 286 0.0 0.9 0.00 0.16 0.00 83 1013.8
20260507060015 44 286 0.0 0.0 0.00 0.17 0.00 82 1013.9
20260507055503 44 286 0.0 0.0 0.00 0.17 0.00 83 1014.0
20260507055003 44 286 0.0 1.7 0.00 0.19 0.00 84 1014.0
20260507054510 44 286 0.0 1.7 0.00 0.21 0.00 83 1013.9
20260507054004 44 286 0.0 0.9 0.00 0.24 0.00 81 1013.9
20260507053505 44 277 0.0 0.0 0.00 0.25 0.00 80 1014.0
20260507053016 45 277 0.0 0.9 0.00 0.26 0.00 79 1014.0
20260507052504 45 277 0.0 1.7 0.00 0.29 0.00 77 1014.1
20260507052005 45 277 0.0 1.7 0.00 0.32 0.00 77 1014.2
20260507051519 45 277 0.0 0.0 0.00 0.33 0.00 78 1014.2
20260507051007 45 277 0.0 1.7 0.00 0.33 0.00 80 1014.2
20260507050503 45 277 0.0 1.7 0.00 0.35 0.00 83 1014.3
20260507050019 45 277 0.0 1.7 0.00 0.35 0.00 81 1014.3
20260507045505 46 227 0.0 0.9 0.00 0.35 0.00 84 1014.3
20260507045006 45 227 0.0 0.9 0.00 0.36 0.00 83 1014.3
20260507044503 45 309 0.0 0.9 0.00 0.36 0.00 81 1014.3
20260507044002 45 309 0.0 0.9 0.00 0.37 0.00 83 1014.3
20260507043501 45 309 0.9 0.9 0.00 0.38 0.00 82 1014.3
20260507043008 45 309 0.0 1.7 0.00 0.38 0.00 79 1014.3
20260507042506 45 309 0.0 1.7 0.00 0.38 0.00 80 1014.3
20260507042005 45 309 0.0 0.0 0.00 0.38 0.00 78 1014.2
20260507041527 45 309 0.0 0.0 0.00 0.38 0.00 77 1014.2
20260507041005 46 309 0.0 0.0 0.00 0.38 0.00 75 1014.2
20260507040506 46 309 0.0 0.0 0.00 0.38 0.00 74 1014.2
20260507040017 46 309 0.0 0.0 0.00 0.38 0.00 74 1014.2
20260507035503 46 309 0.0 1.7 0.00 0.38 0.38 74 1014.2
20260507035005 47 309 0.0 1.7 0.00 0.38 0.38 72 1014.3
20260507034521 47 309 0.0 0.9 0.00 0.38 0.38 73 1014.3
20260507034008 46 309 0.0 0.9 0.00 0.38 0.38 74 1014.3
20260507033505 47 309 0.0 0.0 0.00 0.38 0.38 73 1014.3
20260507033008 47 309 0.0 0.0 0.00 0.38 0.38 73 1014.4
20260507032501 46 309 0.0 0.0 0.00 0.38 0.38 73 1014.5
20260507032001 47 309 0.0 0.0 0.00 0.38 0.38 73 1014.5
20260507031518 47 309 0.0 0.0 0.00 0.38 0.38 74 1014.5
20260507031012 47 309 0.0 0.0 0.00 0.38 0.38 73 1014.5
20260507030508 47 309 0.0 0.0 0.00 0.38 0.38 73 1014.5
20260507030013 47 309 0.0 0.0 0.00 0.39 0.38 73 1014.5
20260507025506 47 309 0.0 0.0 0.00 0.39 0.38 74 1014.5
20260507025006 47 309 0.0 0.0 0.00 0.40 0.38 74 1014.5
20260507024506 47 309 0.0 0.0 0.00 0.40 0.38 74 1014.6
20260507024005 47 309 0.0 0.0 0.00 0.42 0.38 73 1014.5
20260507023507 48 309 0.0 0.0 0.00 0.43 0.38 73 1014.5
20260507023025 48 309 0.0 0.0 0.00 0.43 0.38 73 1014.6
20260507022502 47 309 0.0 0.0 0.00 0.44 0.38 73 1014.5
20260507022010 47 309 0.0 0.0 0.00 0.45 0.38 73 1014.4
20260507021510 47 309 0.0 0.0 0.00 0.45 0.38 73 1014.4
20260507021003 48 309 0.0 0.0 0.00 0.45 0.38 73 1014.4
20260507020503 48 309 0.0 1.7 0.00 0.45 0.38 71 1014.3
20260507020014 48 309 0.0 1.7 0.00 0.45 0.38 72 1014.1
20260507015504 48 309 0.0 1.7 0.00 0.46 0.38 79 1014.1
20260507015002 48 309 0.0 1.7 0.00 0.47 0.38 74 1014.1
20260507014522 49 309 0.0 1.7 0.00 0.47 0.38 72 1013.9
20260507014005 49 309 0.0 1.7 0.00 0.48 0.38 72 1013.7
20260507013507 49 309 0.0 0.0 0.00 0.48 0.38 72 1013.7
20260507013021 48 309 0.0 0.0 0.00 0.49 0.38 75 1013.8
20260507012508 48 309 0.0 0.0 0.00 0.50 0.38 75 1013.9
20260507012006 48 309 0.0 0.0 0.00 0.52 0.38 72 1013.9
20260507011517 48 309 0.0 0.0 0.00 0.52 0.38 72 1013.9
20260507011005 49 309 0.0 0.0 0.00 0.52 0.38 71 1013.9
20260507010507 49 309 0.0 0.0 0.00 0.54 0.38 68 1013.9
20260507010010 49 309 0.0 0.0 0.00 0.54 0.38 69 1013.9
20260507005506 49 309 0.0 1.7 0.00 0.54 0.38 68 1013.7
20260507005002 50 309 0.0 1.7 0.00 0.55 0.38 66 1013.8
20260507004531 50 309 0.0 1.7 0.00 0.55 0.38 66 1013.9
20260507004006 50 309 0.0 1.7 0.00 0.55 0.38 65 1013.7
20260507003505 50 309 0.0 1.7 0.00 0.56 0.38 66 1013.5
20260507003021 50 317 0.0 1.7 0.00 0.56 0.38 66 1013.4
20260507002509 51 329 0.0 2.6 0.00 0.56 0.38 66 1013.3
20260507002006 51 318 0.9 2.6 0.00 0.56 0.38 66 1013.2
20260507001526 51 338 0.0 3.5 0.00 0.56 0.38 67 1013.2
20260507001008 51 324 1.7 3.5 0.00 0.56 0.38 64 1013.2
20260507000505 52 327 1.7 4.3 0.00 0.56 0.38 64 1013.0
20260507000025 52 338 2.6 4.3 0.00 0.57 0.38 63 1013.1
20260506235507 52 336 2.6 4.3 0.00 0.57 0.38 63 1013.1
20260506235003 52 327 2.6 5.2 0.00 0.57 0.38 62 1013.1
20260506234520 53 320 2.6 7.8 0.00 0.57 0.38 62 1013.0
20260506234004 53 327 4.3 8.7 0.00 0.57 0.38 60 1013.0
20260506233509 54 345 4.3 8.7 0.00 0.57 0.38 60 1012.9
20260506233014 54 313 5.2 8.7 0.00 0.57 0.38 59 1012.9
20260506232505 54 344 5.2 9.6 0.00 0.57 0.38 60 1013.0
20260506232006 54 332 6.1 9.6 0.00 0.57 0.38 59 1013.0
20260506231532 54 328 5.2 8.7 0.00 0.57 0.38 60 1013.1
20260506231003 54 347 5.2 8.7 0.00 0.57 0.38 59 1013.0
20260506230506 54 335 5.2 7.8 0.00 0.57 0.38 61 1013.0
20260506230027 54 313 2.6 7.0 0.00 0.57 0.38 61 1013.0
20260506225505 54 346 4.3 8.7 0.00 0.57 0.38 59 1013.1
20260506225006 54 318 2.6 8.7 0.00 0.57 0.38 60 1013.2
20260506224528 54 325 5.2 7.8 0.00 0.57 0.38 58 1013.1
20260506224007 54 339 3.5 8.7 0.00 0.57 0.38 58 1013.2
20260506223503 55 313 5.2 8.7 0.00 0.57 0.38 59 1013.2
20260506223027 55 351 3.5 8.7 0.00 0.57 0.38 59 1013.2
20260506222504 55 325 4.3 7.8 0.00 0.57 0.38 57 1013.3
20260506222010 55 231 2.6 7.0 0.00 0.57 0.38 59 1013.5
20260506221521 55 317 3.5 7.0 0.00 0.57 0.38 59 1013.4
20260506221010 55 331 3.5 7.0 0.00 0.57 0.38 59 1013.5
20260506220509 55 331 2.6 7.8 0.00 0.57 0.38 62 1013.4
20260506220024 55 340 1.7 9.6 0.00 0.57 0.38 60 1013.4
20260506215509 55 319 4.3 9.6 0.00 0.58 0.38 61 1013.3
20260506215011 55 24 0.9 7.8 0.00 0.58 0.38 61 1013.3
20260506214528 55 315 3.5 8.7 0.00 0.58 0.38 61 1013.2
20260506214008 55 339 3.5 8.7 0.00 0.58 0.38 61 1013.0
20260506213507 55 333 4.3 8.7 0.00 0.58 0.38 61 1012.9
20260506213029 55 333 5.2 8.7 0.00 0.58 0.38 60 1012.9
20260506212507 56 319 3.5 7.8 0.00 0.58 0.38 60 1012.9
20260506212009 56 334 1.7 7.8 0.00 0.58 0.38 60 1012.9
20260506211529 56 323 4.3 12.2 0.00 0.60 0.38 61 1012.8
20260506211008 56 331 3.5 12.2 0.00 0.60 0.38 60 1012.7
20260506210507 55 336 6.1 9.6 0.00 0.61 0.38 61 1012.6
20260506210025 55 344 5.2 11.3 0.00 0.62 0.38 59 1012.7
20260506205511 55 317 6.1 11.3 0.00 0.63 0.38 61 1012.7
20260506205004 55 360 7.8 11.3 0.00 0.64 0.38 59 1012.8
20260506204526 55 334 6.1 11.3 0.00 0.66 0.38 60 1012.8
20260506204008 55 342 7.0 9.6 0.00 0.67 0.38 61 1012.8
20260506203511 55 309 5.2 10.4 0.00 0.68 0.38 60 1012.8
20260506203028 56 319 4.3 11.3 0.00 0.69 0.38 60 1012.7
20260506202507 56 323 7.0 11.3 0.00 0.69 0.38 60 1012.7
20260506202011 57 336 8.7 12.2 0.00 0.69 0.38 58 1012.7
20260506201532 57 344 8.7 12.2 0.00 0.69 0.38 58 1012.5
20260506201010 57 319 6.1 11.3 0.00 0.69 0.38 57 1012.7
20260506200505 57 334 4.3 9.6 0.00 0.69 0.38 56 1012.7
20260506200024 57 327 6.1 13.9 0.00 0.69 0.38 57 1012.5
20260506195505 58 317 8.7 13.9 0.00 0.69 0.38 58 1012.5
20260506195005 58 346 7.8 13.0 0.00 0.69 0.38 58 1012.4
20260506194528 59 312 7.8 14.8 0.00 0.69 0.38 57 1012.4
20260506194008 59 344 9.6 14.8 0.00 0.69 0.38 55 1012.4
20260506193508 59 338 2.6 9.6 0.00 0.69 0.38 56 1012.3
20260506193027 60 316 4.3 9.6 0.00 0.69 0.38 58 1012.5
20260506192512 60 340 4.3 9.6 0.00 0.69 0.38 61 1012.5
20260506192008 59 340 4.3 10.4 0.00 0.69 0.38 58 1012.5
20260506191526 59 329 4.3 11.3 0.00 0.69 0.38 61 1012.5
20260506191012 59 329 7.0 11.3 0.00 0.69 0.38 58 1012.5
20260506190507 59 308 4.3 11.3 0.00 0.69 0.38 59 1012.4
20260506190020 60 344 6.1 13.0 0.00 0.69 0.38 56 1012.2
20260506185510 60 319 8.7 13.0 0.00 0.69 0.38 56 1012.1
20260506185014 60 343 8.7 12.2 0.00 0.69 0.38 60 1012.3
20260506184523 60 348 3.5 13.0 0.00 0.69 0.38 58 1012.3
20260506184014 59 322 7.0 13.0 0.00 0.69 0.38 59 1012.3
20260506183510 59 313 7.8 13.9 0.00 0.69 0.38 61 1012.4
20260506183029 59 348 8.7 13.9 0.00 0.69 0.38 59 1012.4
20260506182507 60 352 9.6 13.9 0.00 0.69 0.38 59 1012.3
20260506182012 59 315 4.3 13.0 0.00 0.69 0.38 59 1012.3
20260506181528 59 340 7.8 13.0 0.00 0.69 0.38 60 1012.4
20260506181010 59 332 7.8 10.4 0.00 0.69 0.38 61 1012.4
20260506180509 59 311 6.1 10.4 0.00 0.69 0.38 67 1012.4
20260506180030 59 12 7.0 12.2 0.00 0.69 0.38 62 1012.5
20260506175507 58 344 5.2 12.2 0.00 0.69 0.38 59 1012.5
20260506175007 58 323 7.8 12.2 0.00 0.69 0.38 61 1012.6
20260506174523 58 331 7.0 13.0 0.00 0.69 0.38 63 1012.5
20260506174006 58 310 8.7 13.0 0.00 0.69 0.38 62 1012.6
20260506173505 58 329 4.3 10.4 0.00 0.69 0.38 62 1012.7
20260506173024 58 344 8.7 13.9 0.00 0.69 0.38 63 1012.6
20260506172506 57 341 3.5 13.9 0.00 0.69 0.38 63 1012.6
20260506172009 58 360 6.1 11.3 0.00 0.69 0.38 63 1012.6
20260506171530 57 328 7.0 10.4 0.00 0.69 0.38 63 1012.6
20260506171010 57 360 3.5 10.4 0.00 0.69 0.38 65 1012.6
20260506170510 57 302 4.3 13.0 0.00 0.69 0.38 67 1012.8
20260506170024 57 315 4.3 13.0 0.00 0.69 0.38 61 1012.8
20260506165512 57 360 7.8 14.8 0.00 0.69 0.38 64 1012.8
20260506165011 56 9 8.7 14.8 0.00 0.69 0.38 64 1012.8
20260506164506 57 351 7.0 11.3 0.00 0.69 0.38 68 1012.6
20260506164004 57 339 7.8 13.0 0.00 0.69 0.38 67 1012.7
20260506163502 56 305 7.0 13.0 0.00 0.69 0.38 64 1012.5
20260506163002 56 346 7.8 11.3 0.00 0.69 0.38 64 1012.4
20260506162502 56 14 5.2 11.3 0.00 0.69 0.38 65 1012.4
20260506162002 56 312 4.3 10.4 0.00 0.69 0.38 65 1012.3
20260506161505 56 316 7.0 10.4 0.00 0.69 0.38 67 1012.4
20260506161002 56 360 7.0 10.4 0.00 0.69 0.38 65 1012.7
20260506160503 55 302 4.3 12.2 0.00 0.69 0.38 67 1012.9
20260506160004 56 346 4.3 12.2 0.00 0.69 0.38 71 1012.9
20260506155502 55 316 4.3 9.6 0.00 0.69 0.38 67 1012.9
20260506155003 55 315 6.1 9.6 0.00 0.69 0.38 70 1012.8
20260506154504 55 332 7.0 11.3 0.00 0.69 0.38 70 1012.8
20260506154003 55 344 3.5 15.6 0.00 0.69 0.38 70 1012.6
20260506153502 55 344 7.8 15.6 0.00 0.69 0.38 74 1012.4
20260506153003 54 340 9.6 15.6 0.00 0.69 0.38 70 1012.2
20260506152504 53 338 7.8 13.9 0.00 0.69 0.38 71 1012.1
20260506152003 54 335 8.7 13.9 0.00 0.69 0.38 69 1012.0
20260506151505 54 5 8.7 13.9 0.00 0.69 0.38 72 1011.9
20260506151002 53 339 9.6 13.9 0.00 0.69 0.38 72 1011.9
20260506150503 53 347 10.4 13.0 0.00 0.69 0.38 74 1011.8
20260506150004 53 323 7.8 13.9 0.00 0.69 0.38 74 1011.8
20260506145503 53 348 8.7 13.9 0.00 0.69 0.38 76 1011.8
20260506145002 53 334 7.0 12.2 0.00 0.69 0.38 77 1011.7
20260506144503 52 343 5.2 10.4 0.00 0.69 0.38 80 1011.6
20260506144002 51 347 7.0 10.4 0.00 0.69 0.38 81 1011.7
20260506143503 50 352 7.8 10.4 0.00 0.69 0.38 80 1011.8
20260506143007 50 333 7.0 10.4 0.00 0.69 0.38 81 1011.7
20260506142502 50 344 6.1 10.4 0.00 0.69 0.38 84 1011.6
20260506142006 49 360 7.0 11.3 0.00 0.69 0.38 81 1011.5
20260506141507 49 323 5.2 11.3 0.00 0.69 0.38 83 1011.5
20260506141006 49 328 7.8 11.3 0.00 0.69 0.38 84 1011.4
20260506140503 49 342 7.8 10.4 0.00 0.69 0.38 82 1011.5
20260506140004 49 336 6.1 10.4 0.00 0.69 0.38 84 1011.5
20260506135503 48 325 5.2 8.7 0.00 0.69 0.38 82 1011.5
20260506135006 49 352 6.1 9.6 0.00 0.69 0.38 82 1011.5
20260506134504 48 352 5.2 11.3 0.00 0.69 0.38 84 1011.5
20260506134003 48 326 7.0 11.3 0.00 0.69 0.38 84 1011.3
20260506133503 48 352 7.0 11.3 0.00 0.69 0.38 84 1011.1
20260506133003 48 352 9.6 11.3 0.00 0.69 0.38 84 1011.1
20260506132502 48 352 7.0 11.3 0.00 0.69 0.38 86 1011.0
20260506132005 48 331 8.7 11.3 0.00 0.69 0.38 86 1010.9
20260506131506 47 351 7.8 11.3 0.00 0.69 0.38 86 1010.9
20260506131007 47 352 7.0 11.3 0.00 0.69 0.38 87 1010.8
20260506130504 47 335 7.0 11.3 0.00 0.69 0.38 87 1010.6
20260506130011 47 347 7.0 10.4 0.00 0.69 0.38 87 1010.8
20260506125503 47 317 7.0 9.6 0.00 0.69 0.38 87 1010.7
20260506125005 47 325 7.0 11.3 0.00 0.69 0.38 87 1010.8
20260506124507 46 311 7.8 11.3 0.00 0.69 0.38 87 1010.7
20260506124003 47 339 7.8 10.4 0.00 0.69 0.38 88 1010.8
20260506123508 46 326 7.0 10.4 0.00 0.69 0.38 89 1010.7
20260506123006 46 330 5.2 10.4 0.00 0.69 0.38 89 1010.6
20260506122502 46 328 5.2 8.7 0.00 0.69 0.38 90 1010.3
20260506122011 46 338 6.1 8.7 0.00 0.69 0.38 90 1010.3
20260506121510 46 316 5.2 8.7 0.00 0.69 0.38 91 1010.1
20260506121003 45 352 5.2 7.8 0.00 0.69 0.38 91 1010.0
20260506120504 45 334 4.3 7.8 0.00 0.69 0.38 91 1009.8
20260506120008 45 331 5.2 7.8 0.00 0.69 0.38 91 1009.7
20260506115504 45 336 4.3 7.8 0.00 0.69 0.38 92 1009.4
20260506115003 45 343 4.3 8.7 0.00 0.69 0.38 92 1009.3
20260506114509 44 351 3.5 8.7 0.00 0.69 0.38 92 1009.3
20260506114006 44 336 5.2 8.7 0.00 0.69 0.38 92 1009.4
20260506113507 44 329 4.3 9.6 0.00 0.69 0.38 92 1009.4
20260506113016 44 331 6.1 9.6 0.00 0.69 0.38 92 1009.2
20260506112506 44 322 5.2 8.7 0.00 0.69 0.38 92 1009.4
20260506112006 44 306 5.2 8.7 0.00 0.69 0.38 92 1009.2
20260506111509 44 320 6.1 8.7 0.00 0.69 0.38 93 1009.1
20260506111006 44 323 5.2 7.8 0.00 0.69 0.38 93 1009.2
20260506110504 44 280 3.5 8.7 0.00 0.69 0.38 93 1009.2
20260506110011 44 322 2.6 8.7 0.00 0.69 0.38 93 1009.2
20260506105504 44 336 3.5 8.7 0.00 0.69 0.38 92 1009.0
20260506105003 44 322 5.2 9.6 0.00 0.69 0.38 93 1008.9
20260506104508 44 322 3.5 12.2 0.00 0.69 0.38 93 1008.6
20260506104002 44 323 6.1 12.2 0.00 0.69 0.38 93 1008.2
20260506103508 44 330 7.0 10.4 0.00 0.69 0.38 93 1008.3
20260506103011 44 343 7.8 11.3 0.00 0.69 0.38 93 1008.1
20260506102504 44 331 7.8 11.3 0.00 0.69 0.38 93 1008.0
20260506102004 44 345 7.8 10.4 0.00 0.69 0.38 93 1008.0
20260506101512 44 352 7.0 9.6 0.00 0.69 0.38 93 1008.0
20260506101006 44 352 7.8 9.6 0.00 0.69 0.38 92 1007.9
20260506100505 44 352 6.1 9.6 0.00 0.69 0.38 93 1007.9
20260506100011 44 352 7.0 12.2 0.00 0.69 0.38 93 1007.8
20260506095505 44 9 8.7 12.2 0.00 0.69 0.38 93 1007.8
20260506095002 44 348 8.7 12.2 0.00 0.69 0.38 93 1007.7
20260506094516 44 360 5.2 11.3 0.00 0.69 0.38 93 1007.7
20260506094005 44 345 7.8 11.3 0.00 0.69 0.38 93 1007.6
20260506093506 44 324 7.8 11.3 0.00 0.69 0.38 93 1007.5
20260506093014 44 331 7.8 13.0 0.00 0.69 0.38 93 1007.5
20260506092505 44 352 9.6 13.0 0.01 0.69 0.38 93 1007.5
20260506092003 44 343 8.7 12.2 0.01 0.69 0.38 93 1007.5
20260506091517 44 352 7.8 13.0 0.01 0.69 0.38 93 1007.7
20260506091003 44 336 7.8 13.9 0.02 0.69 0.38 93 1007.8
20260506090503 44 352 9.6 13.9 0.03 0.69 0.38 93 1007.8
20260506090018 44 339 10.4 15.6 0.04 0.69 0.38 93 1007.7
20260506085508 44 352 11.3 16.5 0.05 0.69 0.38 94 1007.6
20260506085003 44 346 13.0 16.5 0.05 0.69 0.38 93 1007.5
20260506084515 44 360 9.6 14.8 0.06 0.69 0.38 94 1007.4
20260506084005 44 350 10.4 14.8 0.07 0.69 0.38 94 1007.6
20260506083506 45 339 10.4 14.8 0.08 0.69 0.38 94 1007.5
20260506083017 45 326 10.4 14.8 0.08 0.69 0.38 94 1007.3
20260506082505 45 334 10.4 14.8 0.08 0.68 0.37 94 1007.4
20260506082005 45 329 8.7 12.2 0.09 0.68 0.37 94 1007.2
20260506081516 45 329 9.6 12.2 0.09 0.68 0.37 94 1007.2
20260506081006 45 330 7.0 10.4 0.08 0.67 0.36 94 1007.5
20260506080503 45 343 5.2 11.3 0.07 0.66 0.35 94 1007.7
20260506073506 45 341 9.6 14.8 0.02 0.61 0.30 93 1007.1
20260506073018 46 340 10.4 14.8 0.03 0.61 0.30 93 1007.0
20260506072508 46 342 7.8 13.0 0.03 0.60 0.29 93 1007.1
20260506072006 46 325 9.6 13.9 0.03 0.58 0.28 93 1007.1
20260506071516 46 340 8.7 13.9 0.04 0.58 0.28 93 1006.9
20260506071005 46 346 9.6 14.8 0.05 0.58 0.28 93 1006.7